Find Starlink 30853

NORAD ID: 58236 Int'l Des: 2023-171 Owner: SPXS Country: US Constellation: starlink operational
LEOCIRCULAR

当前视图

正在加载3D地球...

About Starlink 30853

Starlink 30853 (NORAD 58236) is a starlink constellation satellite (v2 mini) launched Nov 8, 2023 by SPXS of US. It operates in LEO, CIRCULAR orbit with a mass of 730.00 kg.

关于 Starlink 30853

正在加载描述...

即将过境

Passes for default location (London). Set your location on the main map for personalized predictions.

高度历史

Loading altitude history...

两行轨道根数

1 58236U 23171G 26171.03591453 .00000351 00000-0 22297-4 0 9990
2 58236 43.0051 67.5280 0001666 255.1288 104.9380 15.27574036145383
Epoch: Jun 20, 2026 • Age: 35 hours

当前状态

高度 486.1 km
速度 7.63 km/s
星下点 37.45°N, 29.52°E
发射日期 Nov 8, 2023
运行时间 2.6 years
类型 internet

技术详情

分类 Payload
质量 730.00 kg
干质量 700.00 kg
总质量 730.00 kg
长度 0.30 m
直径 4.10 m
跨度 29.00 m
形状 Box + pan
制造商 SPXS
平台类型 Starlink V2M
阶段状态 In Orbit
所有者/国家 SPXS/US

Most Searched